Time,TemperatureF,DewpointF,PressureIn,WindDirection,WindDirectionDegrees,WindSpeedMPH,WindSpeedGustMPH,Humidity,HourlyPrecipIn,Conditions,Clouds,dailyrainin,SoftwareType,DateUTC
2013-06-11 00:00:00,88.7,39.7,29.54,SE,132,0.0,0.0,18,0.00,,,0.00,Wunderground v.1.15,2013-06-11 06:00:00,
2013-06-11 00:10:00,88.4,39.5,29.54,ESE,119,0.0,0.0,18,0.00,,,0.00,Wunderground v.1.15,2013-06-11 06:10:00,
2013-06-11 00:15:00,88.1,40.6,29.54,SE,137,0.0,0.0,19,0.00,,,0.00,Wunderground v.1.15,2013-06-11 06:15:00,
2013-06-11 00:20:00,87.9,40.5,29.54,SSE,157,0.0,0.0,19,0.00,,,0.00,Wunderground v.1.15,2013-06-11 06:20:00,
2013-06-11 00:25:00,87.7,40.3,29.54,ESE,110,0.0,0.0,19,0.00,,,0.00,Wunderground v.1.15,2013-06-11 06:25:00,
2013-06-11 00:35:00,87.2,41.2,29.55,ESE,123,0.0,0.0,20,0.00,,,0.00,Wunderground v.1.15,2013-06-11 06:35:00,
2013-06-11 00:40:00,87.0,41.1,29.55,SE,128,0.0,0.0,20,0.00,,,0.00,Wunderground v.1.15,2013-06-11 06:40:00,
2013-06-11 00:45:00,86.7,40.8,29.55,SE,134,0.0,0.0,20,0.00,,,0.00,Wunderground v.1.15,2013-06-11 06:45:00,
2013-06-11 00:50:00,86.4,41.8,29.56,SE,128,0.0,0.0,21,0.00,,,0.00,Wunderground v.1.15,2013-06-11 06:50:00,
2013-06-11 00:55:00,86.2,41.7,29.56,SE,128,0.0,0.0,21,0.00,,,0.00,Wunderground v.1.15,2013-06-11 06:55:00,
2013-06-11 01:00:00,86.0,41.5,29.56,SE,129,0.0,0.0,21,0.00,,,0.00,Wunderground v.1.15,2013-06-11 07:00:00,
2013-06-11 01:05:00,85.7,41.3,29.55,SE,129,0.0,0.0,21,0.00,,,0.00,Wunderground v.1.15,2013-06-11 07:05:00,
2013-06-11 01:15:00,85.2,42.1,29.55,SE,136,0.0,0.0,22,0.00,,,0.00,Wunderground v.1.15,2013-06-11 07:15:00,
2013-06-11 01:20:00,85.0,41.9,29.55,SE,145,0.0,0.0,22,0.00,,,0.00,Wunderground v.1.15,2013-06-11 07:20:00,
2013-06-11 01:25:00,84.8,41.7,29.55,SE,144,0.0,0.0,22,0.00,,,0.00,Wunderground v.1.15,2013-06-11 07:25:00,
2013-06-11 01:30:00,84.7,41.6,29.55,SE,125,0.0,0.0,22,0.00,,,0.00,Wunderground v.1.15,2013-06-11 07:30:00,
2013-06-11 01:35:00,84.6,41.6,29.55,ESE,102,0.0,0.0,22,0.00,,,0.00,Wunderground v.1.15,2013-06-11 07:35:00,
2013-06-11 01:40:00,84.5,42.6,29.55,SE,130,0.0,0.0,23,0.00,,,0.00,Wunderground v.1.15,2013-06-11 07:40:00,
2013-06-11 01:45:00,84.4,42.5,29.56,SE,144,0.0,0.0,23,0.00,,,0.00,Wunderground v.1.15,2013-06-11 07:45:00,
2013-06-11 01:50:00,84.3,42.5,29.56,SSE,153,1.0,2.0,23,0.00,,,0.00,Wunderground v.1.15,2013-06-11 07:50:00,
2013-06-11 01:55:00,84.3,42.5,29.56,SSE,151,1.0,2.0,23,0.00,,,0.00,Wunderground v.1.15,2013-06-11 07:55:00,
2013-06-11 02:00:00,84.2,42.4,29.56,SE,145,1.0,1.0,23,0.00,,,0.00,Wunderground v.1.15,2013-06-11 08:00:00,
2013-06-11 02:05:00,84.3,42.5,29.55,ESE,103,0.0,1.0,23,0.00,,,0.00,Wunderground v.1.15,2013-06-11 08:05:00,
2013-06-11 02:15:00,84.1,42.3,29.55,SSE,154,0.0,0.0,23,0.00,,,0.00,Wunderground v.1.15,2013-06-11 08:15:00,
2013-06-11 02:20:00,84.0,42.2,29.55,SE,132,0.0,0.0,23,0.00,,,0.00,Wunderground v.1.15,2013-06-11 08:20:00,
2013-06-11 02:25:00,83.9,43.2,29.55,ESE,109,0.0,0.0,24,0.00,,,0.00,Wunderground v.1.15,2013-06-11 08:25:00,
2013-06-11 02:30:00,83.8,43.2,29.56,SE,128,0.0,0.0,24,0.00,,,0.00,Wunderground v.1.15,2013-06-11 08:30:00,
2013-06-11 02:35:00,83.7,43.1,29.56,SE,128,0.0,0.0,24,0.00,,,0.00,Wunderground v.1.15,2013-06-11 08:35:00,
2013-06-11 02:45:00,83.4,42.8,29.56,SE,128,0.0,0.0,24,0.00,,,0.00,Wunderground v.1.15,2013-06-11 08:45:00,
2013-06-11 02:55:00,83.0,42.5,29.57,SE,128,0.0,0.0,24,0.00,,,0.00,Wunderground v.1.15,2013-06-11 08:55:00,
2013-06-11 03:00:00,82.9,42.4,29.57,SE,128,0.0,0.0,24,0.00,,,0.00,Wunderground v.1.15,2013-06-11 09:00:00,
2013-06-11 03:05:00,82.5,43.1,29.56,SE,128,0.0,0.0,25,0.00,,,0.00,Wunderground v.1.15,2013-06-11 09:05:00,
2013-06-11 03:15:00,81.8,42.5,29.57,SE,128,0.0,0.0,25,0.00,,,0.00,Wunderground v.1.15,2013-06-11 09:15:00,
2013-06-11 03:20:00,81.4,43.2,29.57,SE,128,0.0,0.0,26,0.00,,,0.00,Wunderground v.1.15,2013-06-11 09:20:00,
2013-06-11 03:25:00,81.1,43.0,29.57,SE,128,0.0,0.0,26,0.00,,,0.00,Wunderground v.1.15,2013-06-11 09:25:00,
2013-06-11 03:30:00,80.8,42.7,29.57,SE,128,0.0,0.0,26,0.00,,,0.00,Wunderground v.1.15,2013-06-11 09:30:00,
2013-06-11 03:35:00,80.5,42.4,29.57,SE,128,0.0,0.0,26,0.00,,,0.00,Wunderground v.1.15,2013-06-11 09:35:00,
2013-06-11 03:40:00,80.2,42.2,29.58,SE,128,0.0,0.0,26,0.00,,,0.00,Wunderground v.1.15,2013-06-11 09:40:00,
2013-06-11 03:50:00,79.6,42.7,29.58,SE,128,0.0,0.0,27,0.00,,,0.00,Wunderground v.1.15,2013-06-11 09:50:00,
2013-06-11 04:00:00,78.9,42.1,29.58,SE,128,0.0,0.0,27,0.00,,,0.00,Wunderground v.1.15,2013-06-11 10:00:00,
2013-06-11 04:05:00,78.7,42.8,29.58,SE,128,0.0,0.0,28,0.00,,,0.00,Wunderground v.1.15,2013-06-11 10:05:00,
2013-06-11 04:15:00,78.0,42.2,29.58,SE,128,0.0,0.0,28,0.00,,,0.00,Wunderground v.1.15,2013-06-11 10:15:00,
2013-06-11 04:20:00,77.6,41.9,29.58,SE,128,0.0,0.0,28,0.00,,,0.00,Wunderground v.1.15,2013-06-11 10:20:00,
2013-06-11 04:30:00,76.9,42.2,29.59,SE,128,0.0,0.0,29,0.00,,,0.00,Wunderground v.1.15,2013-06-11 10:30:00,
2013-06-11 04:35:00,76.5,41.9,29.59,SE,128,0.0,0.0,29,0.00,,,0.00,Wunderground v.1.15,2013-06-11 10:35:00,
2013-06-11 04:40:00,76.2,41.6,29.59,SE,128,0.0,0.0,29,0.00,,,0.00,Wunderground v.1.15,2013-06-11 10:40:00,
2013-06-11 04:45:00,75.9,42.2,29.59,SE,128,0.0,0.0,30,0.00,,,0.00,Wunderground v.1.15,2013-06-11 10:45:00,
2013-06-11 04:50:00,75.6,42.0,29.59,SE,128,0.0,0.0,30,0.00,,,0.00,Wunderground v.1.15,2013-06-11 10:50:00,
2013-06-11 05:00:00,75.2,42.5,29.60,SE,128,0.0,0.0,31,0.00,,,0.00,Wunderground v.1.15,2013-06-11 11:00:00,
2013-06-11 05:10:00,74.8,42.1,29.60,SE,128,0.0,0.0,31,0.00,,,0.00,Wunderground v.1.15,2013-06-11 11:10:00,
2013-06-11 05:15:00,74.8,42.1,29.60,SE,128,0.0,0.0,31,0.00,,,0.00,Wunderground v.1.15,2013-06-11 11:15:00,
2013-06-11 05:20:00,74.8,42.1,29.60,SE,128,0.0,0.0,31,0.00,,,0.00,Wunderground v.1.15,2013-06-11 11:20:00,
2013-06-11 05:25:00,74.8,43.0,29.61,SE,128,0.0,0.0,32,0.00,,,0.00,Wunderground v.1.15,2013-06-11 11:25:00,
2013-06-11 05:35:00,74.9,43.0,29.60,SE,128,0.0,0.0,32,0.00,,,0.00,Wunderground v.1.15,2013-06-11 11:35:00,
2013-06-11 05:40:00,75.0,43.1,29.60,SE,128,0.0,0.0,32,0.00,,,0.00,Wunderground v.1.15,2013-06-11 11:40:00,
2013-06-11 05:45:00,75.1,43.2,29.61,SE,128,0.0,0.0,32,0.00,,,0.00,Wunderground v.1.15,2013-06-11 11:45:00,
2013-06-11 05:50:00,75.1,44.0,29.61,SE,128,0.0,0.0,33,0.00,,,0.00,Wunderground v.1.15,2013-06-11 11:50:00,
2013-06-11 05:55:00,75.1,43.2,29.60,SE,128,0.0,0.0,32,0.00,,,0.00,Wunderground v.1.15,2013-06-11 11:55:00,
2013-06-11 06:05:00,75.1,43.2,29.61,SE,128,0.0,0.0,32,0.00,,,0.00,Wunderground v.1.15,2013-06-11 12:05:00,
2013-06-11 06:15:00,74.9,43.0,29.61,SE,128,0.0,0.0,32,0.00,,,0.00,Wunderground v.1.15,2013-06-11 12:15:00,
2013-06-11 06:20:00,74.8,43.0,29.61,SE,128,0.0,0.0,32,0.00,,,0.00,Wunderground v.1.15,2013-06-11 12:20:00,
2013-06-11 06:25:00,74.7,44.5,29.61,SE,128,0.0,0.0,34,0.00,,,0.00,Wunderground v.1.15,2013-06-11 12:25:00,
2013-06-11 06:30:00,74.4,45.0,29.61,SE,128,0.0,0.0,35,0.00,,,0.00,Wunderground v.1.15,2013-06-11 12:30:00,
2013-06-11 06:35:00,74.3,44.1,29.62,SE,128,0.0,0.0,34,0.00,,,0.00,Wunderground v.1.15,2013-06-11 12:35:00,
2013-06-11 06:45:00,74.0,44.6,29.61,SE,128,0.0,0.0,35,0.00,,,0.00,Wunderground v.1.15,2013-06-11 12:45:00,
2013-06-11 06:50:00,74.0,45.3,29.62,SE,128,0.0,0.0,36,0.00,,,0.00,Wunderground v.1.15,2013-06-11 12:50:00,
2013-06-11 06:55:00,73.9,44.5,29.62,SE,128,0.0,0.0,35,0.00,,,0.00,Wunderground v.1.15,2013-06-11 12:55:00,
2013-06-11 07:00:00,73.9,43.8,29.62,SE,128,0.0,0.0,34,0.00,,,0.00,Wunderground v.1.15,2013-06-11 13:00:00,
2013-06-11 07:05:00,73.9,45.3,29.63,SE,128,0.0,0.0,36,0.00,,,0.00,Wunderground v.1.15,2013-06-11 13:05:00,
2013-06-11 07:15:00,74.3,46.3,29.64,SE,128,0.0,0.0,37,0.00,,,0.00,Wunderground v.1.15,2013-06-11 13:15:00,
2013-06-11 07:20:00,74.7,46.7,29.63,SE,128,0.0,0.0,37,0.00,,,0.00,Wunderground v.1.15,2013-06-11 13:20:00,
2013-06-11 07:25:00,75.2,47.1,29.63,SE,128,0.0,0.0,37,0.00,,,0.00,Wunderground v.1.15,2013-06-11 13:25:00,
2013-06-11 07:30:00,75.7,48.3,29.63,SE,128,0.0,0.0,38,0.00,,,0.00,Wunderground v.1.15,2013-06-11 13:30:00,
2013-06-11 07:40:00,76.8,46.3,29.63,SE,128,0.0,0.0,34,0.00,,,0.00,Wunderground v.1.15,2013-06-11 13:40:00,
2013-06-11 07:50:00,78.0,46.6,29.63,SE,128,0.0,0.0,33,0.00,,,0.00,Wunderground v.1.15,2013-06-11 13:50:00,
2013-06-11 07:55:00,78.7,47.2,29.62,SE,128,0.0,0.0,33,0.00,,,0.00,Wunderground v.1.15,2013-06-11 13:55:00,
2013-06-11 08:00:00,79.3,46.9,29.63,SE,128,0.0,0.0,32,0.00,,,0.00,Wunderground v.1.15,2013-06-11 14:00:00,
2013-06-11 08:05:00,80.0,46.6,29.64,SE,128,0.0,0.0,31,0.00,,,0.00,Wunderground v.1.15,2013-06-11 14:05:00,
2013-06-11 08:15:00,81.4,47.0,29.65,SE,128,0.0,0.0,30,0.00,,,0.00,Wunderground v.1.15,2013-06-11 14:15:00,
2013-06-11 08:25:00,83.0,47.5,29.64,SW,217,0.0,0.0,29,0.00,,,0.00,Wunderground v.1.15,2013-06-11 14:25:00,
2013-06-11 08:30:00,83.8,47.2,29.63,SW,217,0.0,0.0,28,0.00,,,0.00,Wunderground v.1.15,2013-06-11 14:30:00,
2013-06-11 08:40:00,85.1,48.3,29.63,SW,217,0.0,0.0,28,0.00,,,0.00,Wunderground v.1.15,2013-06-11 14:40:00,
2013-06-11 08:45:00,85.7,48.8,29.62,SW,217,0.0,0.0,28,0.00,,,0.00,Wunderground v.1.15,2013-06-11 14:45:00,
2013-06-11 08:50:00,86.3,48.4,29.62,SW,229,0.0,0.0,27,0.00,,,0.00,Wunderground v.1.15,2013-06-11 14:50:00,
2013-06-11 09:00:00,87.5,48.4,29.63,West,272,0.0,0.0,26,0.00,,,0.00,Wunderground v.1.15,2013-06-11 15:00:00,
2013-06-11 09:05:00,88.0,47.8,29.63,SW,234,0.0,2.0,25,0.00,,,0.00,Wunderground v.1.15,2013-06-11 15:05:00,
2013-06-11 09:15:00,89.0,49.7,29.62,WSW,251,0.0,0.0,26,0.00,,,0.00,Wunderground v.1.15,2013-06-11 15:15:00,
2013-06-11 09:20:00,89.5,49.0,29.62,West,260,0.0,0.0,25,0.00,,,0.00,Wunderground v.1.15,2013-06-11 15:20:00,
2013-06-11 09:30:00,90.0,49.5,29.62,WNW,292,0.0,0.0,25,0.00,,,0.00,Wunderground v.1.15,2013-06-11 15:30:00,
2013-06-11 09:35:00,90.2,48.5,29.62,South,173,0.0,0.0,24,0.00,,,0.00,Wunderground v.1.15,2013-06-11 15:35:00,
2013-06-11 09:40:00,90.4,48.7,29.62,SSW,193,0.0,0.0,24,0.00,,,0.00,Wunderground v.1.15,2013-06-11 15:40:00,
2013-06-11 09:45:00,90.9,50.2,29.62,South,180,0.0,0.0,25,0.00,,,0.00,Wunderground v.1.15,2013-06-11 15:45:00,
2013-06-11 09:55:00,91.8,49.9,29.61,SW,227,0.0,0.0,24,0.00,,,0.00,Wunderground v.1.15,2013-06-11 15:55:00,
2013-06-11 10:05:00,92.7,50.6,29.62,SW,227,0.0,0.0,24,0.00,,,0.00,Wunderground v.1.15,2013-06-11 16:05:00,
2013-06-11 10:15:00,93.2,52.1,29.61,SW,221,0.0,0.0,25,0.00,,,0.00,Wunderground v.1.15,2013-06-11 16:15:00,
2013-06-11 10:20:00,93.4,51.2,29.61,WNW,286,0.0,0.0,24,0.00,,,0.00,Wunderground v.1.15,2013-06-11 16:20:00,
2013-06-11 10:25:00,93.6,51.4,29.60,West,273,0.0,1.0,24,0.00,,,0.00,Wunderground v.1.15,2013-06-11 16:25:00,
2013-06-11 10:30:00,93.9,51.6,29.60,West,273,0.0,0.0,24,0.00,,,0.00,Wunderground v.1.15,2013-06-11 16:30:00,
2013-06-11 10:40:00,94.6,52.2,29.60,WNW,300,0.0,0.0,24,0.00,,,0.00,Wunderground v.1.15,2013-06-11 16:40:00,
2013-06-11 10:45:00,94.9,52.5,29.60,WNW,293,0.0,0.0,24,0.00,,,0.00,Wunderground v.1.15,2013-06-11 16:45:00,
2013-06-11 10:55:00,95.6,53.1,29.59,West,272,0.0,0.0,24,0.00,,,0.00,Wunderground v.1.15,2013-06-11 16:55:00,
2013-06-11 11:00:00,96.0,51.0,29.59,South,173,0.0,0.0,22,0.00,,,0.00,Wunderground v.1.15,2013-06-11 17:00:00,
2013-06-11 11:05:00,96.2,49.9,29.60,SE,132,1.0,1.0,21,0.00,,,0.00,Wunderground v.1.15,2013-06-11 17:05:00,
2013-06-11 11:15:00,96.4,50.1,29.60,SE,140,0.0,1.0,21,0.00,,,0.00,Wunderground v.1.15,2013-06-11 17:15:00,
2013-06-11 11:20:00,96.9,50.5,29.60,SSE,148,0.0,0.0,21,0.00,,,0.00,Wunderground v.1.15,2013-06-11 17:20:00,
2013-06-11 11:25:00,97.5,51.0,29.59,SE,145,0.0,0.0,21,0.00,,,0.00,Wunderground v.1.15,2013-06-11 17:25:00,
2013-06-11 11:30:00,98.3,51.7,29.59,WNW,287,0.0,1.0,21,0.00,,,0.00,Wunderground v.1.15,2013-06-11 17:30:00,
2013-06-11 11:35:00,98.6,51.9,29.58,SE,128,0.0,1.0,21,0.00,,,0.00,Wunderground v.1.15,2013-06-11 17:35:00,
2013-06-11 11:45:00,99.0,49.5,29.58,SSE,148,0.0,0.0,19,0.00,,,0.00,Wunderground v.1.15,2013-06-11 17:45:00,
2013-06-11 11:50:00,99.2,49.7,29.58,South,187,0.0,0.0,19,0.00,,,0.00,Wunderground v.1.15,2013-06-11 17:50:00,
2013-06-11 11:55:00,99.8,52.9,29.57,South,178,0.0,0.0,21,0.00,,,0.00,Wunderground v.1.15,2013-06-11 17:55:00,
2013-06-11 12:00:00,100.6,49.4,29.57,SSE,163,0.0,0.0,18,0.00,,,0.00,Wunderground v.1.15,2013-06-11 18:00:00,
2013-06-11 12:10:00,101.5,50.1,29.57,West,275,0.0,0.0,18,0.00,,,0.00,Wunderground v.1.15,2013-06-11 18:10:00,
2013-06-11 12:15:00,101.7,50.3,29.57,SE,134,0.0,0.0,18,0.00,,,0.00,Wunderground v.1.15,2013-06-11 18:15:00,
2013-06-11 12:20:00,102.0,49.0,29.57,SE,134,0.0,0.0,17,0.00,,,0.00,Wunderground v.1.15,2013-06-11 18:20:00,
2013-06-11 12:25:00,102.2,49.1,29.57,SE,142,0.0,0.0,17,0.00,,,0.00,Wunderground v.1.15,2013-06-11 18:25:00,
2013-06-11 12:30:00,102.7,51.1,29.56,West,274,0.0,0.0,18,0.00,,,0.00,Wunderground v.1.15,2013-06-11 18:30:00,
2013-06-11 12:35:00,103.0,48.2,29.57,SE,129,0.0,0.0,16,0.00,,,0.00,Wunderground v.1.15,2013-06-11 18:35:00,
2013-06-11 12:40:00,103.3,50.0,29.57,West,263,0.0,0.0,17,0.00,,,0.00,Wunderground v.1.15,2013-06-11 18:40:00,
2013-06-11 12:45:00,103.8,50.4,29.56,NW,313,0.0,0.0,17,0.00,,,0.00,Wunderground v.1.15,2013-06-11 18:45:00,
2013-06-11 12:55:00,104.6,47.7,29.55,East,92,0.0,0.0,15,0.00,,,0.00,Wunderground v.1.15,2013-06-11 18:55:00,
2013-06-11 13:00:00,104.9,49.7,29.55,East,99,0.0,0.0,16,0.00,,,0.00,Wunderground v.1.15,2013-06-11 19:00:00,
2013-06-11 13:10:00,105.0,49.7,29.56,NW,324,0.0,0.0,16,0.00,,,0.00,Wunderground v.1.15,2013-06-11 19:10:00,
2013-06-11 13:15:00,105.2,49.9,29.56,NNW,348,0.0,0.0,16,0.00,,,0.00,Wunderground v.1.15,2013-06-11 19:15:00,
2013-06-11 13:20:00,105.1,49.8,29.55,SE,130,0.0,0.0,16,0.00,,,0.00,Wunderground v.1.15,2013-06-11 19:20:00,
2013-06-11 13:30:00,105.3,50.0,29.55,WNW,295,0.0,0.0,16,0.00,,,0.00,Wunderground v.1.15,2013-06-11 19:30:00,
2013-06-11 13:35:00,105.2,46.3,29.55,NW,306,0.0,0.0,14,0.00,,,0.00,Wunderground v.1.15,2013-06-11 19:35:00,
2013-06-11 13:40:00,105.8,46.8,29.54,NW,305,0.0,0.0,14,0.00,,,0.00,Wunderground v.1.15,2013-06-11 19:40:00,
2013-06-11 13:45:00,106.1,47.0,29.53,East,97,0.0,0.0,14,0.00,,,0.00,Wunderground v.1.15,2013-06-11 19:45:00,
2013-06-11 13:50:00,106.0,48.8,29.53,West,278,0.0,0.0,15,0.00,,,0.00,Wunderground v.1.15,2013-06-11 19:50:00,
2013-06-11 14:00:00,105.9,46.9,29.53,WSW,252,0.0,0.0,14,0.00,,,0.00,Wunderground v.1.15,2013-06-11 20:00:00,
2013-06-11 14:05:00,106.3,47.2,29.53,West,271,0.0,0.0,14,0.00,,,0.00,Wunderground v.1.15,2013-06-11 20:05:00,
2013-06-11 14:15:00,106.5,49.2,29.52,NNW,336,0.0,0.0,15,0.00,,,0.00,Wunderground v.1.15,2013-06-11 20:15:00,
2013-06-11 14:20:00,106.6,49.3,29.52,NNW,336,0.0,0.0,15,0.00,,,0.00,Wunderground v.1.15,2013-06-11 20:20:00,
2013-06-11 14:25:00,106.5,49.2,29.52,WNW,293,0.0,0.0,15,0.00,,,0.00,Wunderground v.1.15,2013-06-11 20:25:00,
2013-06-11 14:30:00,106.6,45.5,29.52,SSE,156,0.0,0.0,13,0.00,,,0.00,Wunderground v.1.15,2013-06-11 20:30:00,
2013-06-11 14:35:00,106.4,45.3,29.52,SSE,148,0.0,0.0,13,0.00,,,0.00,Wunderground v.1.15,2013-06-11 20:35:00,
2013-06-11 14:40:00,106.6,45.5,29.51,SE,140,0.0,1.0,13,0.00,,,0.00,Wunderground v.1.15,2013-06-11 20:40:00,
2013-06-11 14:45:00,106.8,45.6,29.51,SE,145,0.0,1.0,13,0.00,,,0.00,Wunderground v.1.15,2013-06-11 20:45:00,
2013-06-11 14:50:00,107.2,45.9,29.51,SE,144,0.0,0.0,13,0.00,,,0.00,Wunderground v.1.15,2013-06-11 20:50:00,
2013-06-11 14:55:00,107.4,48.1,29.50,WNW,286,0.0,0.0,14,0.00,,,0.00,Wunderground v.1.15,2013-06-11 20:55:00,
2013-06-11 15:00:00,107.3,46.0,29.50,West,275,0.0,0.0,13,0.00,,,0.00,Wunderground v.1.15,2013-06-11 21:00:00,
2013-06-11 15:05:00,107.0,45.8,29.52,West,272,0.0,0.0,13,0.00,,,0.00,Wunderground v.1.15,2013-06-11 21:05:00,
2013-06-11 15:15:00,107.2,45.9,29.52,ENE,78,0.0,0.0,13,0.00,,,0.00,Wunderground v.1.15,2013-06-11 21:15:00,
2013-06-11 15:20:00,107.1,45.9,29.52,SSW,209,0.0,0.0,13,0.00,,,0.00,Wunderground v.1.15,2013-06-11 21:20:00,
2013-06-11 15:25:00,107.2,45.9,29.51,WSW,257,0.0,0.0,13,0.00,,,0.00,Wunderground v.1.15,2013-06-11 21:25:00,
2013-06-11 15:30:00,107.1,43.7,29.51,SE,138,0.0,0.0,12,0.00,,,0.00,Wunderground v.1.15,2013-06-11 21:30:00,
2013-06-11 15:35:00,107.2,45.9,29.51,SE,127,0.0,0.0,13,0.00,,,0.00,Wunderground v.1.15,2013-06-11 21:35:00,
2013-06-11 15:45:00,107.4,46.1,29.51,WNW,284,0.0,0.0,13,0.00,,,0.00,Wunderground v.1.15,2013-06-11 21:45:00,
2013-06-11 15:50:00,107.3,46.0,29.50,NW,326,0.0,0.0,13,0.00,,,0.00,Wunderground v.1.15,2013-06-11 21:50:00,
2013-06-11 15:55:00,106.9,45.7,29.50,WNW,299,0.0,0.0,13,0.00,,,0.00,Wunderground v.1.15,2013-06-11 21:55:00,
2013-06-11 16:00:00,106.4,45.3,29.51,WNW,288,1.0,1.0,13,0.00,,,0.00,Wunderground v.1.15,2013-06-11 22:00:00,
2013-06-11 16:05:00,105.9,44.9,29.52,WNW,290,0.0,1.0,13,0.00,,,0.00,Wunderground v.1.15,2013-06-11 22:05:00,
2013-06-11 16:15:00,105.3,46.4,29.51,NNW,329,0.0,0.0,14,0.00,,,0.00,Wunderground v.1.15,2013-06-11 22:15:00,
2013-06-11 16:20:00,105.0,42.1,29.51,NNE,18,0.0,0.0,12,0.00,,,0.00,Wunderground v.1.15,2013-06-11 22:20:00,
2013-06-11 16:30:00,105.1,44.3,29.51,WNW,299,0.0,0.0,13,0.00,,,0.00,Wunderground v.1.15,2013-06-11 22:30:00,
2013-06-11 16:35:00,105.2,46.3,29.50,WNW,296,0.0,0.0,14,0.00,,,0.00,Wunderground v.1.15,2013-06-11 22:35:00,
2013-06-11 16:40:00,105.3,44.5,29.50,ESE,109,0.0,0.0,13,0.00,,,0.00,Wunderground v.1.15,2013-06-11 22:40:00,
2013-06-11 16:50:00,105.1,44.3,29.50,West,262,0.0,0.0,13,0.00,,,0.00,Wunderground v.1.15,2013-06-11 22:50:00,
2013-06-11 16:55:00,104.9,44.1,29.50,WSW,248,0.0,0.0,13,0.00,,,0.00,Wunderground v.1.15,2013-06-11 22:55:00,
2013-06-11 17:00:00,104.7,44.0,29.50,SSE,165,0.0,0.0,13,0.00,,,0.00,Wunderground v.1.15,2013-06-11 23:00:00,
2013-06-11 17:05:00,104.6,43.9,29.50,NW,312,0.0,0.0,13,0.00,,,0.00,Wunderground v.1.15,2013-06-11 23:05:00,
2013-06-11 17:15:00,104.3,43.7,29.50,NW,317,0.0,0.0,13,0.00,,,0.00,Wunderground v.1.15,2013-06-11 23:15:00,
2013-06-11 17:25:00,104.3,43.7,29.50,SW,224,0.0,0.0,13,0.00,,,0.00,Wunderground v.1.15,2013-06-11 23:25:00,
2013-06-11 17:35:00,104.2,41.5,29.49,SE,129,1.0,1.0,12,0.00,,,0.00,Wunderground v.1.15,2013-06-11 23:35:00,
2013-06-11 17:40:00,104.0,43.4,29.49,WNW,286,1.0,2.0,13,0.00,,,0.00,Wunderground v.1.15,2013-06-11 23:40:00,
2013-06-11 17:45:00,103.9,43.4,29.49,WNW,298,0.0,2.0,13,0.00,,,0.00,Wunderground v.1.15,2013-06-11 23:45:00,
2013-06-11 17:50:00,103.9,43.4,29.49,West,273,0.0,0.0,13,0.00,,,0.00,Wunderground v.1.15,2013-06-11 23:50:00,
2013-06-11 17:55:00,104.0,43.4,29.49,West,260,0.0,0.0,13,0.00,,,0.00,Wunderground v.1.15,2013-06-11 23:55:00,
2013-06-11 18:00:00,104.1,43.5,29.48,SW,233,0.0,0.0,13,0.00,,,0.00,Wunderground v.1.15,2013-06-12 00:00:00,
2013-06-11 18:05:00,104.1,43.5,29.48,WSW,246,0.0,0.0,13,0.00,,,0.00,Wunderground v.1.15,2013-06-12 00:05:00,
2013-06-11 18:15:00,103.9,43.4,29.48,WNW,290,0.0,3.0,13,0.00,,,0.00,Wunderground v.1.15,2013-06-12 00:15:00,
2013-06-11 18:20:00,103.5,45.0,29.48,NNW,333,1.0,1.0,14,0.00,,,0.00,Wunderground v.1.15,2013-06-12 00:20:00,
2013-06-11 18:25:00,103.2,42.8,29.49,WNW,294,1.0,1.0,13,0.00,,,0.00,Wunderground v.1.15,2013-06-12 00:25:00,
2013-06-11 18:30:00,102.8,42.5,29.49,West,275,0.0,0.0,13,0.00,,,0.00,Wunderground v.1.15,2013-06-12 00:30:00,
2013-06-11 18:35:00,102.7,42.4,29.48,West,275,0.0,0.0,13,0.00,,,0.00,Wunderground v.1.15,2013-06-12 00:35:00,
2013-06-11 18:45:00,102.3,42.1,29.49,West,275,0.0,0.0,13,0.00,,,0.00,Wunderground v.1.15,2013-06-12 00:45:00,
2013-06-11 18:50:00,102.1,42.0,29.49,West,275,0.0,0.0,13,0.00,,,0.00,Wunderground v.1.15,2013-06-12 00:50:00,
2013-06-11 18:55:00,101.9,43.7,29.49,West,275,0.0,0.0,14,0.00,,,0.00,Wunderground v.1.15,2013-06-12 00:55:00,
2013-06-11 19:05:00,101.6,45.3,29.47,West,275,0.0,0.0,15,0.00,,,0.00,Wunderground v.1.15,2013-06-12 01:05:00,
2013-06-11 19:15:00,101.0,43.0,29.48,West,275,0.0,0.0,14,0.00,,,0.00,Wunderground v.1.15,2013-06-12 01:15:00,
2013-06-11 19:20:00,100.9,43.0,29.48,SW,230,0.0,0.0,14,0.00,,,0.00,Wunderground v.1.15,2013-06-12 01:20:00,
2013-06-11 19:25:00,100.7,42.8,29.48,SW,230,0.0,0.0,14,0.00,,,0.00,Wunderground v.1.15,2013-06-12 01:25:00,
2013-06-11 19:30:00,100.5,42.7,29.48,SW,230,0.0,0.0,14,0.00,,,0.00,Wunderground v.1.15,2013-06-12 01:30:00,
2013-06-11 19:40:00,100.0,42.3,29.49,SW,229,0.0,0.0,14,0.00,,,0.00,Wunderground v.1.15,2013-06-12 01:40:00,
2013-06-11 19:50:00,99.4,41.8,29.49,NNE,17,0.0,0.0,14,0.00,,,0.00,Wunderground v.1.15,2013-06-12 01:50:00,
2013-06-11 19:55:00,99.0,41.5,29.49,NNE,24,0.0,0.0,14,0.00,,,0.00,Wunderground v.1.15,2013-06-12 01:55:00,
2013-06-11 20:00:00,98.6,43.0,29.49,NNE,24,0.0,0.0,15,0.00,,,0.00,Wunderground v.1.15,2013-06-12 02:00:00,
2013-06-11 20:05:00,98.1,40.8,29.47,NNE,24,0.0,0.0,14,0.00,,,0.00,Wunderground v.1.15,2013-06-12 02:05:00,
2013-06-11 20:15:00,97.2,40.1,29.47,NNE,24,0.0,0.0,14,0.00,,,0.00,Wunderground v.1.15,2013-06-12 02:15:00,
2013-06-11 20:20:00,96.8,39.7,29.48,NNE,24,0.0,0.0,14,0.00,,,0.00,Wunderground v.1.15,2013-06-12 02:20:00,
2013-06-11 20:25:00,96.2,39.3,29.48,NNE,24,0.0,0.0,14,0.00,,,0.00,Wunderground v.1.15,2013-06-12 02:25:00,
2013-06-11 20:30:00,95.8,39.0,29.48,NNE,24,0.0,0.0,14,0.00,,,0.00,Wunderground v.1.15,2013-06-12 02:30:00,
2013-06-11 20:35:00,95.4,38.6,29.49,NNE,24,0.0,0.0,14,0.00,,,0.00,Wunderground v.1.15,2013-06-12 02:35:00,
2013-06-11 20:40:00,95.0,38.3,29.49,NNE,24,0.0,0.0,14,0.00,,,0.00,Wunderground v.1.15,2013-06-12 02:40:00,
2013-06-11 20:45:00,94.6,38.0,29.49,NNE,24,0.0,0.0,14,0.00,,,0.00,Wunderground v.1.15,2013-06-12 02:45:00,
2013-06-11 20:50:00,94.2,39.5,29.49,NNE,24,0.0,0.0,15,0.00,,,0.00,Wunderground v.1.15,2013-06-12 02:50:00,
2013-06-11 20:55:00,93.9,39.2,29.49,NNE,24,0.0,0.0,15,0.00,,,0.00,Wunderground v.1.15,2013-06-12 02:55:00,
2013-06-11 21:05:00,93.2,38.7,29.49,NNE,24,0.0,0.0,15,0.00,,,0.00,Wunderground v.1.15,2013-06-12 03:05:00,
2013-06-11 21:15:00,92.4,39.7,29.49,NNE,24,0.0,0.0,16,0.00,,,0.00,Wunderground v.1.15,2013-06-12 03:15:00,
2013-06-11 21:20:00,91.8,39.2,29.50,NNE,24,0.0,0.0,16,0.00,,,0.00,Wunderground v.1.15,2013-06-12 03:20:00,
2013-06-11 21:25:00,91.4,38.9,29.51,NNE,25,0.0,0.0,16,0.00,,,0.00,Wunderground v.1.15,2013-06-12 03:25:00,
2013-06-11 21:30:00,91.0,38.6,29.51,NNE,27,0.0,0.0,16,0.00,,,0.00,Wunderground v.1.15,2013-06-12 03:30:00,
2013-06-11 21:35:00,90.6,38.3,29.51,NNE,27,0.0,0.0,16,0.00,,,0.00,Wunderground v.1.15,2013-06-12 03:35:00,
2013-06-11 21:40:00,90.0,37.8,29.51,NE,50,0.0,0.0,16,0.00,,,0.00,Wunderground v.1.15,2013-06-12 03:40:00,
2013-06-11 21:45:00,89.6,39.0,29.52,ENE,65,0.0,0.0,17,0.00,,,0.00,Wunderground v.1.15,2013-06-12 03:45:00,
2013-06-11 21:55:00,89.0,38.5,29.53,ENE,65,0.0,0.0,17,0.00,,,0.00,Wunderground v.1.15,2013-06-12 03:55:00,
2013-06-11 22:05:00,88.4,38.0,29.52,ENE,75,0.0,0.0,17,0.00,,,0.00,Wunderground v.1.15,2013-06-12 04:05:00,
2013-06-11 22:10:00,88.2,39.3,29.52,SE,125,0.0,2.0,18,0.00,,,0.00,Wunderground v.1.15,2013-06-12 04:10:00,
2013-06-11 22:15:00,88.4,40.9,29.52,ESE,107,1.0,2.0,19,0.00,,,0.00,Wunderground v.1.15,2013-06-12 04:15:00,
2013-06-11 22:20:00,88.9,41.3,29.52,ESE,111,1.0,2.0,19,0.00,,,0.00,Wunderground v.1.15,2013-06-12 04:20:00,
2013-06-11 22:25:00,89.5,41.8,29.51,SE,140,1.0,2.0,19,0.00,,,0.00,Wunderground v.1.15,2013-06-12 04:25:00,
2013-06-11 22:30:00,90.1,42.3,29.51,SSE,149,1.0,1.0,19,0.00,,,0.00,Wunderground v.1.15,2013-06-12 04:30:00,
2013-06-11 22:35:00,90.5,42.6,29.52,SE,140,1.0,1.0,19,0.00,,,0.00,Wunderground v.1.15,2013-06-12 04:35:00,
2013-06-11 22:40:00,90.8,42.9,29.52,SSE,153,1.0,1.0,19,0.00,,,0.00,Wunderground v.1.15,2013-06-12 04:40:00,
2013-06-11 22:45:00,90.9,42.9,29.52,SE,130,0.0,1.0,19,0.00,,,0.00,Wunderground v.1.15,2013-06-12 04:45:00,
2013-06-11 22:50:00,90.9,42.9,29.52,SE,131,0.0,0.0,19,0.00,,,0.00,Wunderground v.1.15,2013-06-12 04:50:00,
2013-06-11 22:55:00,90.8,42.9,29.53,SE,137,0.0,0.0,19,0.00,,,0.00,Wunderground v.1.15,2013-06-12 04:55:00,
2013-06-11 23:00:00,90.7,42.8,29.54,ESE,113,0.0,0.0,19,0.00,,,0.00,Wunderground v.1.15,2013-06-12 05:00:00,
2013-06-11 23:05:00,90.6,42.7,29.52,ESE,103,0.0,0.0,19,0.00,,,0.00,Wunderground v.1.15,2013-06-12 05:05:00,
2013-06-11 23:15:00,90.1,43.6,29.53,East,83,0.0,0.0,20,0.00,,,0.00,Wunderground v.1.15,2013-06-12 05:15:00,
2013-06-11 23:20:00,89.7,43.3,29.53,East,84,0.0,0.0,20,0.00,,,0.00,Wunderground v.1.15,2013-06-12 05:20:00,
2013-06-11 23:25:00,89.3,43.0,29.54,East,95,0.0,0.0,20,0.00,,,0.00,Wunderground v.1.15,2013-06-12 05:25:00,
2013-06-11 23:30:00,88.9,42.6,29.54,ESE,114,0.0,0.0,20,0.00,,,0.00,Wunderground v.1.15,2013-06-12 05:30:00,
2013-06-11 23:35:00,88.6,42.4,29.54,SE,130,0.0,0.0,20,0.00,,,0.00,Wunderground v.1.15,2013-06-12 05:35:00,
2013-06-11 23:40:00,88.4,42.2,29.55,ESE,108,0.0,0.0,20,0.00,,,0.00,Wunderground v.1.15,2013-06-12 05:40:00,
2013-06-11 23:50:00,87.9,40.5,29.55,East,101,0.0,0.0,19,0.00,,,0.00,Wunderground v.1.15,2013-06-12 05:50:00,
2013-06-11 23:55:00,87.7,40.3,29.55,East,98,0.0,0.0,19,0.00,,,0.00,Wunderground v.1.15,2013-06-12 05:55:00,